User: anonymous   Login
Location: *
(42.3377°N, 71.0868°W)
Time: 02:42:30
(UTC+00:00)
Language:

Cosmos 1461 - Orbit

View from above orbital plane
View from above orbital plane
View from above satellite
View from above satellite

Ground track
Ground track

The orbit data is extracted from the following two-line orbital elements,

1 14064U 83044A   20192.36716472 +.00000112 +00000-0 +23907-4 0  9993
2 14064 065.0010 058.6756 0113341 314.2086 044.9760 14.94744759890576
Epoch (UTC): 10 July 2020 08:48:43
Eccentricity: 0.0113341
inclination: 65.0010°
perigee height: 504 km
apogee height: 662 km
right ascension of ascending node: 58.6756°
argument of perigee: 314.2086°
revolutions per day: 14.94744759
mean anomaly at epoch: 44.9760°
orbit number at epoch: 89057

The dashed part of the orbit path shows where the satellite is in the earth's shadow,  

DLR